Memphis, TN

12:52 PM CDT on June 26, 2017 (GMT -0500)
Memphis International

Weather History for KMEM - March, 2014

Change the Weather History Date:

Monday, March 10, 2014

  Actual Average Record
Temperature  
Mean Temperature 52 °F 52 °F  
Max Temperature 68 °F 62 °F 82 °F (1986)
Min Temperature 36 °F 43 °F 20 °F (1934)
Degree Days  
Heating Degree Days 13 13  
Month to date heating degree days 224 144  
Since 1 July heating degree days 3050 2594  
Cooling Degree Days 0 0  
Month to date cooling degree days 0 0  
Year to date cooling degree days 0 3  
Growing Degree Days 2 (Base 50)    
Moisture  
Dew Point 43 °F    
Average Humidity 69    
Maximum Humidity 92    
Minimum Humidity 45    
Precipitation  
Precipitation 0.00 in 0.16 in 3.43 in (2016)
Month to date precipitation 2.40 1.58  
Year to date precipitation 10.52 9.95  
Snow  
Snow 0.00 in 0.00 in 0.50 in (1984)
Month to date snowfall 0.5 0.2  
Since 1 July snowfall 0.8 3.6  
Snow Depth 0.00 in    
Sea Level Pressure  
Sea Level Pressure 30.03 in    
Wind  
Wind Speed 7 mph (SW)    
Max Wind Speed 17 mph    
Max Gust Speed 24 mph    
Visibility 9 miles    
Events      
T = Trace of Precipitation, MM = Missing Value Source: NWS Daily Summary

Daily Weather History Graph

Daily Weather History Graph

Search for Another Location

Airport or City:

Trip Planner

Search our weather history database for the weather conditions in past years. The results will help you decide how hot, cold, wet, or windy it might be!

Date:

Astronomy

Mar. 10, 2014 Rise Set
Actual Time 7:17 AM CDT 7:03 PM CDT
Civil Twilight 6:52 AM CDT 7:28 PM CDT
Nautical Twilight 6:22 AM CDT 7:58 PM CDT
Astronomical Twilight 5:53 AM CDT 8:27 PM CDT
Moon 1:56 PM CDT (3/10) 3:20 AM CDT (3/10)
Length of Visible Light 12h 36m
Length of Day
11h 45m
Waxing Gibbous, 70% of the Moon is Illuminated
Mar 10
Waxing Gibbous
Mar 16
Full
Mar 23
Last Quarter
Mar 30
New
Apr 7
First Quarter

Hourly Weather History & Observations

Time (CDT) Temp. Windchill Dew Point Humidity Pressure Visibility Wind Dir Wind Speed Gust Speed Precip Events Conditions
12:54 AM 42.1 °F - 37.0 °F 82% 30.16 in 9.0 mi Calm Calm - N/A   Clear
1:54 AM 39.0 °F 35.7 °F 35.1 °F 86% 30.14 in 8.0 mi South 4.6 mph - N/A   Clear
2:54 AM 39.9 °F - 36.0 °F 86% 30.14 in 8.0 mi Calm Calm - N/A   Clear
3:54 AM 37.9 °F 35.5 °F 35.1 °F 89% 30.12 in 8.0 mi SSW 3.5 mph - N/A   Clear
4:54 AM 39.0 °F 36.8 °F 36.0 °F 89% 30.10 in 8.0 mi SW 3.5 mph - N/A   Clear
5:50 AM 39.2 °F 37.0 °F 37.4 °F 93% 30.10 in 7.0 mi SSW 3.5 mph - N/A   Mostly Cloudy
5:54 AM 39.0 °F - 37.0 °F 93% 30.11 in 7.0 mi Calm Calm - N/A   Overcast
6:54 AM 41.0 °F - 37.9 °F 89% 30.10 in 7.0 mi Calm Calm - N/A   Overcast
7:54 AM 44.1 °F 40.1 °F 39.9 °F 85% 30.10 in 5.0 mi SW 6.9 mph - N/A   Overcast
8:54 AM 46.9 °F - 43.0 °F 86% 30.12 in 5.0 mi SW 5.8 mph - N/A   Overcast
9:54 AM 52.0 °F - 44.1 °F 74% 30.10 in 7.0 mi SW 6.9 mph - N/A   Overcast
10:42 AM 55.4 °F - 44.6 °F 67% 30.09 in 10.0 mi West 10.4 mph - N/A   Scattered Clouds
10:54 AM 57.0 °F - 45.0 °F 64% 30.09 in 10.0 mi West 8.1 mph - N/A   Scattered Clouds
11:54 AM 60.1 °F - 45.0 °F 57% 30.07 in 10.0 mi Variable 5.8 mph - N/A   Clear
12:54 PM 62.1 °F - 46.0 °F 56% 30.05 in 10.0 mi SSW 12.7 mph - N/A   Clear
1:54 PM 64.9 °F - 45.0 °F 48% 30.02 in 10.0 mi West 12.7 mph - N/A   Scattered Clouds
2:54 PM 66.0 °F - 45.0 °F 47% 29.97 in 10.0 mi SW 10.4 mph 18.4 mph N/A   Partly Cloudy
3:54 PM 66.9 °F - 45.0 °F 45% 29.94 in 10.0 mi SW 10.4 mph 18.4 mph N/A   Partly Cloudy
4:54 PM 66.0 °F - 45.0 °F 47% 29.92 in 10.0 mi SW 12.7 mph 24.2 mph N/A   Partly Cloudy
5:54 PM 66.0 °F - 45.0 °F 47% 29.90 in 10.0 mi SW 10.4 mph - N/A   Partly Cloudy
6:54 PM 62.1 °F - 46.9 °F 58% 29.90 in 10.0 mi SSW 9.2 mph - N/A   Partly Cloudy
7:54 PM 57.0 °F - 46.9 °F 69% 29.90 in 10.0 mi South 6.9 mph - N/A   Partly Cloudy
8:54 PM 57.9 °F - 48.9 °F 72% 29.91 in 10.0 mi SSW 9.2 mph - N/A   Partly Cloudy
9:54 PM 57.0 °F - 50.0 °F 77% 29.91 in 10.0 mi SSW 9.2 mph - N/A   Partly Cloudy
10:54 PM 57.0 °F - 50.0 °F 77% 29.91 in 10.0 mi SSW 10.4 mph 21.9 mph N/A   Clear
11:54 PM 55.9 °F - 50.0 °F 80% 29.88 in 10.0 mi Variable 6.9 mph - N/A   Clear